SBIRS GEO-6 (USA 336)

Last updated on Sun Jun 21 2026 00:03:08 GMT+0000 (Coordinated Universal Time)

1 53355U 22092A 26171.46521811 -.00000297 00000+0 00000+0 0 9998 2 53355 3.2514 317.5627 0001883 121.1257 136.4655 1.00270925 14267
UTC large
Height (km)
Speed (km/s)
/
Latitude / Longitude
Inclination (degrees)
Orbital Period (minutes)
Azimuth
Elevation
Range (km)
Doppler Factor

Next 0 passes for location: London (51.5072 / 0.1276)

No passes found over London.
SBIRS GEO-6 (USA 336)